Location: Castlegate Estates
(36.0859°N, 86.6142°W)
Time: 09:14:38
(UTC+00:00)

Daily predictions for brighter satellites

Satellite Brightness Start Highest point End
(mag) Time Altitude Azimuth Time Altitude Azimuth Time Altitude Azimuth
Cosmos 1606 Rocket 4.4 12:00:02 10° SW 12:03:52 28° WNW 12:07:42 10° NNW
STARLINK 1032 3.1 12:01:46 10° SW 12:05:19 78° NW 12:08:52 10° NE
Cosmos 1726 Rocket 4.2 12:01:48 10° SW 12:05:50 34° WNW 12:09:53 10° NNW
STARLINK 1011 3.1 12:04:26 10° SW 12:07:59 73° NW 12:11:33 10° NE
Cosmos 1680 Rocket 3.9 12:04:38 10° SW 12:09:40 43° WNW 12:14:44 10° N
Envisat 4.0 12:05:12 10° NNE 12:10:10 51° E 12:15:05 10° S
STARLINK 1036 3.1 12:07:07 10° SW 12:10:39 69° NW 12:14:13 10° NE
Cosmos 2322 Rocket 2.2 12:06:30 10° SSW 12:12:07 72° WNW 12:17:50 10° NNE
Milstar 3 Cent rocket 4.2 12:00:10 10° WSW 12:12:28 45° S 12:18:45 10° ESE
Cosmos 1328 4.1 12:10:47 10° NNW 12:14:36 45° W 12:18:22 10° SSW
STARLINK 1047 3.2 12:12:34 10° WSW 12:16:04 60° NW 12:19:37 10° NE
STARLINK 1037 3.3 12:13:08 10° WSW 12:16:40 59° NW 12:20:12 10° NE
NOSS 3-2 (C) 4.2 12:09:16 10° NW 12:17:07 78° WSW 12:25:40 10° SSE
STARLINK-46 4.2 12:16:20 10° W 12:17:20 13° SW 12:18:25 10° SSW
Cosmos 1371 Rocket 4.3 12:13:35 10° NNW 12:18:53 73° ENE 12:24:12 10° SSE
STARLINK 1059 3.3 12:15:54 10° WSW 12:19:24 55° NW 12:22:56 10° NE
Cosmos 158 Rocket 4.0 12:17:06 10° SW 12:21:49 51° WNW 12:26:35 10° N
STARLINK 1057 3.4 12:18:40 10° WSW 12:22:10 51° NW 12:25:40 10° NE
STARLINK 1052 3.5 12:21:27 10° WSW 12:24:55 48° NW 12:28:25 10° NE
SMAP 3.1 12:20:39 10° N 12:25:15 61° WNW 12:29:49 10° SSW
PSLV R/B 2.8 12:23:59 10° W 12:25:37 29° NNW 12:27:17 10° NE
NOSS 3-4 (A) 4.0 12:20:49 10° WSW 12:26:16 36° NW 12:31:58 10° NNE
NOSS 3-4 (C) 4.0 12:20:54 10° WSW 12:26:21 36° NW 12:32:05 10° NNE
ATLAS 3B R/B 3.1 12:20:15 10° NNW 12:27:00 68° ENE 12:33:57 10° SE
USA 215 3.6 12:20:52 10° SSE 12:27:10 52° SW 12:33:31 10° NW
STARLINK 1068 3.6 12:24:16 10° WSW 12:27:42 45° NW 12:31:10 10° NE
Cosmos 2263 Rocket 2.3 12:22:35 10° NNW 12:28:10 65° WSW 12:33:45 10° S
Cosmos 2366 rocket 4.3 12:27:31 10° NNW 12:33:32 46° W 12:39:32 10° SSW
Cosmos 1461 3.0 23:18:54 10° NNW 23:23:18 75° ENE 23:27:50 10° SE
SMAP 3.2 23:20:43 10° S 23:25:21 84° WSW 23:30:01 10° NNW
Cosmos 2297 Rocket 2.5 23:26:39 10° S 23:32:01 47° ESE 23:37:26 10° NNE
Cosmos 1602 Rocket 3.8 23:31:13 10° S 23:35:36 77° W 23:39:59 10° N
Cosmos 1048 Rocket 4.0 23:30:29 10° NNW 23:35:38 86° ENE 23:40:45 10° SSE
Haruka 4.0 23:35:04 10° SW 23:37:52 22° SSE 23:41:00 10° ESE
Cosmos 1980 4.2 23:33:37 10° N 23:38:55 38° ENE 23:44:10 10° SE
Cosmos 2227 Rocket 2.3 23:38:51 10° S 23:44:21 55° ESE 23:49:52 10° NNE
Cosmos 1953 Rocket 4.3 23:43:45 10° SSE 23:47:44 32° E 23:51:44 10° NNE
Cosmos 2219 Rocket 2.7 23:42:28 10° NNW 23:48:07 68° WSW 23:53:41 10° S
Cosmos 2154 Rocket 4.4 23:41:53 10° SSW 23:48:08 70° W 23:54:24 10° N
CZ-4 R/B 1.8 23:47:38 10° SE 23:51:23 41° ENE 23:55:14 10° N
COSMO-SKYMED 1 2.5 23:47:24 10° NNE 23:51:45 82° ESE 23:56:05 10° S
Cosmos 1758 Rocket 3.5 23:48:26 10° S 23:52:42 67° E 23:56:59 10° NNE
